Regional Weather Roundup
Issued by NWS

Home | Current Version | Previous Version | Graphics & Text | Print | Product List | Glossary Off
Versions: 1 2 3 4 5 6 7 8 9 10 11 12 13 14 15 16 17 18 19 20 21 22 23 24 25 26 27 28 29 30 31 32 33 34 35 36 37 38 39 40 41 42 43 44 45 46 47 48 49 50

000
ASUS43 KTOP 051708
RWRKS

WEATHER ROUNDUP FOR KANSAS
NATIONAL WEATHER SERVICE GOODLAND KS
1200 PM CDT THU MAY 05 2016

NOTE:  "FAIR" INDICATES FEW OR NO CLOUDS BELOW 12,000 FEET WITH NO
SIGNIFICANT WEATHER AND/OR OBSTRUCTIONS TO VISIBILITY.

KSZ001>006-013>018-027>032-041>047-051800-
NORTHWEST KANSAS

CITY           SKY/WX    TMP DP  RH WIND       PRES   REMARKS
GOODLAND       SUNNY     76  40  27 S16       30.10S
HAYS           SUNNY     72  45  37 S5        30.12S
HILL CITY      SUNNY     76  47  35 S10       30.11F
RUSSELL        SUNNY     71  40  32 S5        30.11F
$$

KSZ061>065-074>080-084>089-051800-
SOUTHWEST KANSAS

CITY           SKY/WX    TMP DP  RH WIND       PRES   REMARKS
DODGE CITY     SUNNY    N/A N/A N/A MISG      30.13S
ELKHART          N/A     75  45  34 S8          N/A
GARDEN CITY    SUNNY     75  45  34 S16       30.10F
GREAT BEND     SUNNY     72  41  33 CALM      30.12S
LIBERAL        SUNNY     73  52  46 S14       30.12F
PRATT          SUNNY     69  40  35 CALM      30.13F
$$

KSZ066>073-081>083-090>101-051800-
SOUTHEAST KANSAS

CITY           SKY/WX    TMP DP  RH WIND       PRES   REMARKS
CHANUTE        SUNNY     72  42  34 NW9       30.10S
COFFEYVILLE    SUNNY     72  43  35 NW8       30.11R
HUTCHINSON     SUNNY     73  42  32 S5        30.12F
MEDICINE LODGE   N/A     74  41  30 SE5       30.11F
NEWTON         SUNNY     72  36  26 N5        30.15S
PARSONS        SUNNY     72  43  35 N6        30.12R
WICHITA INTL   SUNNY     36  33  89 N5        30.12S
WICHITA JABRA  SUNNY     73  39  29 CALM      30.12S
WICHITA MCCONL SUNNY     72  39  29 VRB1      30.12S
WINFIELD       SUNNY     72  42  34 VRB5      30.29R
$$

KSZ007>012-019>026-033>040-048>060-102>105-051800-
NORTHEAST KANSAS

CITY           SKY/WX    TMP DP  RH WIND       PRES   REMARKS
CONCORDIA      SUNNY     71  33  24 CALM      30.11F
EMPORIA        SUNNY     71  37  28 VRB6      30.10F
LAWRENCE       SUNNY     70  43  37 MISG      30.10S
MANHATTAN      SUNNY     73  39  29 CALM      30.10F
MARYSVILLE     SUNNY     70  45  40 NW7       30.11S
OLATHE IND     SUNNY     68  42  38 VRB5      30.11S
OLATHE EXE     SUNNY     68  38  33 VRB7      30.10S
SALINA         SUNNY     72  40  31 VRB3      30.13S
TOPEKA BILLARD SUNNY     71  44  37 NW5       30.10S
TOPEKA FORBES  SUNNY     72  43  35 NW7       30.10S
$$




USA.gov is the U.S. government's official web portal to all federal, state and local government web resources and services.